GW6118 Weather Reports


time (UTC)temp
C
wind
direction
speed
KPH
gust
KPH
rain 1hr
cm
rain 24hr
cm
rain mn
cm
humidity
%
barometer
mb
20260506220012 17 235 4.8 14.5 0.00 0.66 0.66 88 1006.8
20260506213021 17 220 3.2 12.9 0.00 0.66 0.66 89 1006.5
20260506211525 17 245 4.8 12.9 0.00 0.66 0.66 90 1006.4
20260506210015 16 248 6.4 12.9 0.00 0.66 0.66 91 1006.4
20260506204515 16 238 4.8 12.9 0.00 0.66 0.66 91 1006.4
20260506203019 16 262 4.8 12.9 0.00 0.66 0.66 92 1006.4
20260506201528 16 217 1.6 8.0 0.00 0.66 0.66 92 1006.4
20260506200011 16 239 3.2 9.7 0.00 0.66 0.66 92 1006.4
20260506194514 16 246 6.4 11.3 0.00 0.66 0.66 91 1006.6
20260506193019 16 237 4.8 11.3 0.03 0.66 0.66 93 1006.6
20260506191521 15 246 4.8 11.3 0.05 0.66 0.66 93 1006.8
20260506190025 15 173 4.8 14.5 0.08 0.66 0.66 93 1007.0
20260506184519 15 224 6.4 12.9 0.08 0.66 0.66 93 1007.2
20260506183018 15 219 8.0 17.7 0.08 0.64 0.64 93 1007.4
20260506181519 15 180 8.0 19.3 0.10 0.61 0.61 92 1007.5
20260506180008 15 218 8.0 16.1 0.10 0.58 0.58 92 1007.5
20260506174512 15 209 8.0 20.9 0.10 0.58 0.58 92 1007.5
20260506173013 15 227 9.7 19.3 0.08 0.56 0.56 92 1007.3
20260506171521 15 221 3.2 19.3 0.05 0.51 0.51 92 1007.6
20260506170022 15 223 8.0 29.0 0.05 0.48 0.48 91 1007.8
20260506164508 15 248 8.0 20.9 0.10 0.48 0.48 92 1007.6
20260506163014 15 237 12.9 29.0 0.15 0.48 0.48 92 1007.5
20260506161515 15 241 8.0 22.5 0.20 0.46 0.46 91 1007.2
20260506160019 15 236 12.9 20.9 0.23 0.43 0.43 91 1008.1
20260506154506 15 254 9.7 20.9 0.23 0.38 0.38 91 1008.5
20260506153011 15 237 6.4 20.9 0.23 0.33 0.33 91 1008.8
20260506151516 15 267 4.8 22.5 0.23 0.25 0.25 90 1008.9
20260506144536 16 277 4.8 14.5 0.15 0.15 0.15 89 1008.7
20260506143008 16 167 4.8 14.5 0.10 0.10 0.10 87 1008.6
20260506141512 16 190 6.4 19.3 0.03 0.03 0.03 84 1008.8
20260506133020 17 238 6.4 19.3 0.00 0.00 0.00 80 1008.8
20260506131507 17 238 6.4 16.1 0.00 0.00 0.00 80 1008.8
20260506124521 17 232 6.4 16.1 0.00 0.00 0.00 76 1008.9
20260506123035 18 190 11.3 20.9 0.00 0.00 0.00 74 1008.8
20260506121510 18 211 6.4 22.5 0.00 0.00 0.00 74 1008.4
20260506120022 17 244 9.7 22.5 0.00 0.00 0.00 74 1008.4
20260506113028 17 226 11.3 25.7 0.00 0.00 0.00 74 1008.2
20260506111525 18 250 8.0 25.7 0.00 0.00 0.00 73 1008.3
20260506110010 18 231 9.7 27.4 0.00 0.00 0.00 73 1008.2
20260506101529 18 241 8.0 19.3 0.00 0.00 0.00 73 1007.8
20260506100028 18 207 8.0 25.7 0.00 0.00 0.00 73 1007.9
20260506091521 18 237 6.4 22.5 0.00 0.00 0.00 72 1007.8
20260506090012 18 228 6.4 16.1 0.00 0.03 0.00 71 1007.9
20260506084511 18 237 9.7 20.9 0.00 0.03 0.00 71 1008.1
20260506083028 18 243 11.3 22.5 0.00 0.03 0.00 70 1008.1
20260506073018 18 259 6.4 14.5 0.00 0.03 0.00 67 1008.3
20260506061518 18 234 4.8 12.9 0.00 0.03 0.00 63 1009.0
20260506044538 19 265 4.8 11.3 0.00 0.03 0.00 60 1009.6
20260506043010 19 218 3.2 8.0 0.00 0.03 0.00 59 1009.6
20260506041514 19 253 4.8 11.3 0.00 0.03 0.00 58 1009.6
20260506034522 20 189 4.8 12.9 0.00 0.03 0.03 56 1009.5
20260506033028 20 207 4.8 14.5 0.00 0.03 0.03 55 1009.4
20260506031523 20 231 4.8 14.5 0.00 0.03 0.03 53 1009.3
20260506030018 20 209 4.8 14.5 0.00 0.03 0.03 53 1009.3
20260506024529 21 210 4.8 8.0 0.00 0.03 0.03 51 1009.3
20260506023023 21 244 4.8 14.5 0.00 0.03 0.03 49 1009.4
20260506021526 21 219 4.8 19.3 0.00 0.03 0.03 48 1009.4
20260506020016 21 242 6.4 12.9 0.00 0.03 0.03 47 1009.3
20260506014519 22 257 4.8 19.3 0.00 0.03 0.03 46 1009.3
20260506013025 22 218 6.4 20.9 0.00 0.03 0.03 45 1009.2
20260506011527 22 223 3.2 19.3 0.00 0.03 0.03 44 1008.9
20260506010033 23 215 6.4 14.5 0.00 0.03 0.03 43 1008.6
20260506004522 23 223 9.7 22.5 0.00 0.03 0.03 43 1008.5
20260506003023 23 238 4.8 12.9 0.00 0.03 0.03 43 1008.2
20260506001526 23 233 3.2 11.3 0.00 0.03 0.03 42 1008.1
20260506000013 23 237 6.4 22.5 0.00 0.03 0.03 41 1008.1
20260505233021 24 254 9.7 22.5 0.00 0.03 0.03 40 1007.9
20260505231525 24 237 6.4 20.9 0.00 0.03 0.03 40 1007.9
20260505224512 25 234 11.3 29.0 0.00 0.03 0.03 36 1007.6
20260505223018 26 216 14.5 27.4 0.00 0.03 0.03 1007.6